tDAR Logo tDAR digital antiquity

California Department of Forestry 1948 Aerial Photos: Flightline 16 (Humboldt County)

Creator(s): California Department of Forestry

Year: 1948

» Downloads & Basic Metadata

Summary

A series of aerial photos taken from 1947 to 1948 by the California Department of Forestry in Humboldt County.


Cite this Record

California Department of Forestry 1948 Aerial Photos: Flightline 16 (Humboldt County). California Department of Forestry. 1948. Humboldt State University, Cultural Resources Facility ( tDAR id: 370093) ; doi:10.6067/XCV8J101P5





Keywords


Temporal Coverage

Calendar Date: 1947 to 1948


Spatial Coverage

min long: -124.662; min lat: 39.935 ; max long: -123.311; max lat: 42.115 ;

File Information

  Name Size Creation Date Date Uploaded Access
a48-hum-cdf2-16-001.jpg 4.69mb Oct 28, 2011 2:48:49 PM Public
a48-hum-cdf2-16-002.jpg 4.93mb Oct 28, 2011 2:49:50 PM Public
a48-hum-cdf2-16-003.jpg 4.97mb Oct 28, 2011 2:50:04 PM Public
a48-hum-cdf2-16-004.jpg 4.89mb Oct 28, 2011 2:50:18 PM Public
a48-hum-cdf2-16-005.jpg 4.75mb Oct 28, 2011 2:50:30 PM Public
a48-hum-cdf2-16-006.jpg 4.81mb Oct 28, 2011 2:50:54 PM Public
a48-hum-cdf2-16-007.jpg 4.79mb Oct 28, 2011 2:51:07 PM Public
a48-hum-cdf2-16-008.jpg 4.87mb Oct 28, 2011 2:51:18 PM Public
a48-hum-cdf2-16-009.jpg 5.15mb Oct 28, 2011 2:51:28 PM Public
a48-hum-cdf2-16-010.jpg 5.35mb Oct 28, 2011 2:54:59 PM Public
a48-hum-cdf2-16-011.jpg 5.30mb Oct 28, 2011 2:55:09 PM Public
a48-hum-cdf2-16-012.jpg 5.34mb Oct 28, 2011 2:55:16 PM Public
a48-hum-cdf2-16-013.jpg 5.24mb Oct 28, 2011 2:55:31 PM Public
a48-hum-cdf2-16-014.jpg 5.49mb Oct 28, 2011 2:55:52 PM Public
a48-hum-cdf2-16-015.jpg 5.35mb Oct 28, 2011 2:56:04 PM Public
a48-hum-cdf2-16-016.jpg 5.03mb Oct 28, 2011 2:56:13 PM Public
a48-hum-cdf2-16-017.jpg 5.15mb Oct 28, 2011 2:56:29 PM Public
a48-hum-cdf2-16-018.jpg 5.33mb Oct 28, 2011 2:57:08 PM Public
a48-hum-cdf2-16-019.jpg 5.01mb Oct 28, 2011 2:57:23 PM Public
a48-hum-cdf2-16-020.jpg 5.16mb Oct 28, 2011 2:58:18 PM Public
a48-hum-cdf2-16-021.jpg 5.39mb Oct 28, 2011 2:58:35 PM Public
a48-hum-cdf2-16-022.jpg 5.38mb Oct 28, 2011 2:58:55 PM Public
a48-hum-cdf2-16-023.jpg 5.18mb Oct 28, 2011 2:59:14 PM Public
a48-hum-cdf2-16-024.jpg 4.84mb Oct 28, 2011 2:59:27 PM Public
a48-hum-cdf2-16-025.jpg 4.95mb Oct 28, 2011 2:59:52 PM Public
a48-hum-cdf2-16-026.jpg 4.78mb Oct 28, 2011 3:00:06 PM Public
a48-hum-cdf2-16-027.jpg 4.62mb Oct 28, 2011 3:00:29 PM Public
a48-hum-cdf2-16-028.jpg 4.99mb Oct 28, 2011 3:00:49 PM Public
a48-hum-cdf2-16-029.jpg 4.61mb Oct 28, 2011 3:01:08 PM Public
a48-hum-cdf2-16-030.jpg 4.98mb Oct 28, 2011 3:01:21 PM Public
a48-hum-cdf2-16-031.jpg 4.91mb Oct 28, 2011 3:02:00 PM Public
a48-hum-cdf2-16-032.jpg 4.98mb Oct 28, 2011 3:02:14 PM Public
a48-hum-cdf2-16-033.jpg 5.27mb Oct 28, 2011 3:03:12 PM Public
a48-hum-cdf2-16-034.jpg 4.85mb Oct 28, 2011 3:03:31 PM Public
a48-hum-cdf2-16-035.jpg 4.75mb Oct 28, 2011 3:03:58 PM Public
a48-hum-cdf2-16-036.jpg 5.09mb Oct 28, 2011 3:04:11 PM Public
a48-hum-cdf2-16-037.jpg 5.07mb Oct 28, 2011 3:04:22 PM Public
a48-hum-cdf2-16-038.jpg 4.95mb Oct 28, 2011 3:04:30 PM Public
a48-hum-cdf2-16-039.jpg 4.84mb Oct 28, 2011 3:04:48 PM Public
a48-hum-cdf2-16-040.jpg 4.81mb Oct 28, 2011 3:04:54 PM Public
a48-hum-cdf2-16-041.jpg 4.56mb Oct 28, 2011 3:05:10 PM Public
a48-hum-cdf2-16-042.jpg 4.65mb Oct 28, 2011 3:05:21 PM Public
a48-hum-cdf2-16-043.jpg 4.63mb Oct 28, 2011 3:05:46 PM Public
a48-hum-cdf2-16-044.jpg 4.54mb Oct 28, 2011 3:05:58 PM Public
a48-hum-cdf2-16-048.jpg 3.68mb Oct 28, 2011 3:06:13 PM Public
a48-hum-cdf2-16-049.jpg 3.29mb Oct 28, 2011 3:06:28 PM Public
a48-hum-cdf2-16-050.jpg 3.41mb Oct 28, 2011 3:06:36 PM Public
a48-hum-cdf2-16-051.jpg 4.06mb Oct 28, 2011 3:08:40 PM Public
a48-hum-cdf2-16-052.jpg 4.78mb Oct 28, 2011 3:08:50 PM Public
a48-hum-cdf2-16-053.jpg 5.23mb Oct 28, 2011 3:09:03 PM Public
a48-hum-cdf2-16-054.jpg 5.31mb Oct 28, 2011 3:09:27 PM Public
a48-hum-cdf2-16-055.jpg 5.07mb Oct 28, 2011 3:09:41 PM Public
a48-hum-cdf2-16-058.jpg 3.90mb Oct 28, 2011 3:10:02 PM Public
a48-hum-cdf2-16-059.jpg 3.39mb Oct 28, 2011 3:10:16 PM Public
a48-hum-cdf2-16-060.jpg 3.25mb Oct 28, 2011 3:10:43 PM Public
a48-hum-cdf2-16-061.jpg 3.28mb Oct 28, 2011 3:11:20 PM Public
a48-hum-cdf2-16-062.jpg 3.25mb Oct 28, 2011 3:11:29 PM Public
a48-hum-cdf2-16-063.jpg 3.14mb Oct 28, 2011 3:11:38 PM Public
a48-hum-cdf2-16-064.jpg 3.16mb Oct 28, 2011 3:11:52 PM Public
a48-hum-cdf2-16-065.jpg 2.97mb Oct 28, 2011 3:12:22 PM Public
a48-hum-cdf2-16-066.jpg 3.14mb Oct 28, 2011 3:12:34 PM Public
a48-hum-cdf2-16-067.jpg 3.18mb Oct 28, 2011 3:12:40 PM Public
a48-hum-cdf2-16-068.jpg 3.29mb Oct 28, 2011 3:12:46 PM Public
a48-hum-cdf2-16-069.jpg 2.89mb Oct 28, 2011 3:13:02 PM Public
a48-hum-cdf2-16-070.jpg 2.95mb Oct 28, 2011 3:13:07 PM Public
a48-hum-cdf2-16-071.jpg 3.11mb Oct 28, 2011 3:13:12 PM Public
a48-hum-cdf2-16-072.jpg 3.74mb Oct 28, 2011 3:13:17 PM Public
a48-hum-cdf2-16-073.jpg 4.45mb Oct 28, 2011 3:14:04 PM Public
a48-hum-cdf2-16-074.jpg 4.93mb Oct 28, 2011 3:14:39 PM Public
a48-hum-cdf2-16-075.jpg 5.19mb Oct 28, 2011 3:15:00 PM Public
a48-hum-cdf2-16-076.jpg 5.29mb Oct 28, 2011 3:15:26 PM Public
a48-hum-cdf2-16-077.jpg 5.15mb Oct 28, 2011 3:17:45 PM Public
a48-hum-cdf2-16-078.jpg 5.04mb Oct 28, 2011 3:18:10 PM Public
a48-hum-cdf2-16-079.jpg 5.47mb Oct 28, 2011 3:18:32 PM Public
a48-hum-cdf2-16-080.jpg 5.32mb Oct 28, 2011 3:18:55 PM Public
a48-hum-cdf2-16-081.jpg 5.37mb Oct 28, 2011 3:20:27 PM Public
a48-hum-cdf2-16-082.jpg 5.24mb Oct 28, 2011 3:20:40 PM Public
a48-hum-cdf2-16-083.jpg 4.89mb Oct 28, 2011 3:21:06 PM Public
a48-hum-cdf2-16-084.jpg 4.01mb Oct 28, 2011 3:21:27 PM Public
a48-hum-cdf2-16-085.jpg 3.75mb Oct 28, 2011 3:21:46 PM Public
a48-hum-cdf2-16-086.jpg 3.49mb Oct 28, 2011 3:22:57 PM Public
a48-hum-cdf2-16-087.jpg 3.66mb Oct 28, 2011 3:25:30 PM Public
a48-hum-cdf2-16-088.jpg 4.06mb Oct 28, 2011 3:27:55 PM Public
a48-hum-cdf2-16-089.jpg 4.53mb Oct 28, 2011 3:28:22 PM Public
a48-hum-cdf2-16-090.jpg 4.74mb Oct 28, 2011 3:28:31 PM Public
a48-hum-cdf2-16-091.jpg 4.41mb Oct 28, 2011 3:28:36 PM Public
a48-hum-cdf2-16-092.jpg 4.60mb Oct 28, 2011 3:28:44 PM Public
a48-hum-cdf2-16-119.jpg 4.42mb Oct 28, 2011 3:29:21 PM Public
a48-hum-cdf2-16-120.jpg 4.09mb Oct 28, 2011 3:30:00 PM Public
a48-hum-cdf2-16-121.jpg 3.67mb Oct 28, 2011 3:32:46 PM Public
a48-hum-cdf2-16-122.jpg 3.35mb Oct 28, 2011 3:32:53 PM Public
a48-hum-cdf2-16-123.jpg 3.65mb Oct 28, 2011 3:33:00 PM Public
a48-hum-cdf2-16-124.jpg 3.81mb Oct 28, 2011 3:33:05 PM Public
a48-hum-cdf2-16-125.jpg 3.65mb Oct 28, 2011 3:33:19 PM Public
a48-hum-cdf2-16-126.jpg 3.60mb Oct 28, 2011 3:33:26 PM Public
a48-hum-cdf2-16-127.jpg 3.79mb Oct 28, 2011 3:33:32 PM Public
a48-hum-cdf2-16-128.jpg 4.26mb Oct 28, 2011 3:34:10 PM Public
a48-hum-cdf2-16-129.jpg 4.58mb Oct 28, 2011 3:34:44 PM Public
a48-hum-cdf2-16-130.jpg 4.65mb Oct 28, 2011 3:37:53 PM Public
a48-hum-cdf2-16-131.jpg 4.93mb Oct 28, 2011 3:40:12 PM Public
a48-hum-cdf2-16-132.jpg 4.80mb Oct 28, 2011 3:40:42 PM Public
a48-hum-cdf2-16-133.jpg 5.11mb Oct 28, 2011 3:41:15 PM Public
a48-hum-cdf2-16-134.jpg 5.45mb Oct 28, 2011 3:41:49 PM Public
a48-hum-cdf2-16-135.jpg 5.53mb Oct 28, 2011 3:42:22 PM Public
a48-hum-cdf2-16-136.jpg 5.44mb Oct 28, 2011 3:43:29 PM Public
a48-hum-cdf2-16-137.jpg 5.35mb Oct 28, 2011 3:44:02 PM Public
a48-hum-cdf2-16-138.jpg 5.32mb Oct 28, 2011 3:45:35 PM Public
a48-hum-cdf2-16-139.jpg 5.35mb Oct 28, 2011 3:46:26 PM Public
a48-hum-cdf2-16-140.jpg 5.33mb Oct 28, 2011 3:46:55 PM Public
a48-hum-cdf2-16-141.jpg 5.23mb Oct 28, 2011 3:47:29 PM Public
a48-hum-cdf2-16-142.jpg 5.15mb Oct 28, 2011 3:48:02 PM Public
a48-hum-cdf2-16-143.jpg 5.03mb Oct 28, 2011 3:48:36 PM Public
a48-hum-cdf2-16-144.jpg 4.16mb Oct 28, 2011 3:49:20 PM Public
a48-hum-cdf2-16-145.jpg 4.56mb Oct 28, 2011 3:49:51 PM Public
a48-hum-cdf2-16-146.jpg 4.49mb Oct 28, 2011 3:50:01 PM Public
a48-hum-cdf2-16-147.jpg 4.40mb Oct 28, 2011 3:50:07 PM Public
a48-hum-cdf2-16-148.jpg 4.03mb Oct 28, 2011 3:50:44 PM Public
a48-hum-cdf2-16-149.jpg 3.96mb Oct 28, 2011 3:51:11 PM Public
a48-hum-cdf2-16-150.jpg 4.33mb Oct 28, 2011 3:51:49 PM Public
a48-hum-cdf2-16-151.jpg 4.54mb Oct 28, 2011 3:52:23 PM Public
a48-hum-cdf2-16-152.jpg 5.09mb Oct 28, 2011 3:52:31 PM Public
a48-hum-cdf2-16-153.jpg 5.06mb Oct 28, 2011 3:52:39 PM Public
a48-hum-cdf2-16-154.jpg 4.71mb Oct 28, 2011 3:52:44 PM Public
a48-hum-cdf2-16-155.jpg 4.73mb Oct 28, 2011 3:52:57 PM Public
a48-hum-cdf2-16-156.jpg 5.03mb Oct 28, 2011 3:53:28 PM Public
a48-hum-cdf2-16-157.jpg 5.46mb Oct 28, 2011 3:53:59 PM Public
a48-hum-cdf2-16-158.jpg 5.50mb Oct 28, 2011 3:54:07 PM Public
a48-hum-cdf2-16-159.jpg 5.53mb Oct 28, 2011 3:54:12 PM Public
a48-hum-cdf2-16-160.jpg 5.32mb Oct 28, 2011 3:54:47 PM Public
a48-hum-cdf2-16-161.jpg 5.26mb Oct 28, 2011 3:54:57 PM Public
a48-hum-cdf2-16-162.jpg 5.43mb Oct 28, 2011 3:55:03 PM Public
a48-hum-cdf2-16-163.jpg 5.46mb Oct 28, 2011 3:55:08 PM Public
a48-hum-cdf2-16-164.jpg 5.32mb Oct 28, 2011 3:55:44 PM Public
a48-hum-cdf2-16-165.jpg 5.22mb Oct 28, 2011 3:56:21 PM Public
a48-hum-cdf2-16-166.jpg 5.28mb Oct 28, 2011 3:56:54 PM Public
a48-hum-cdf2-16-167.jpg 5.25mb Oct 28, 2011 3:58:10 PM Public
a48-hum-cdf2-16-168.jpg 5.50mb Oct 28, 2011 3:58:15 PM Public
a48-hum-cdf2-16-169.jpg 5.31mb Oct 28, 2011 3:58:20 PM Public
a48-hum-cdf2-16-170.jpg 5.27mb Oct 28, 2011 3:58:27 PM Public
a48-hum-cdf2-16-171.jpg 5.16mb Oct 28, 2011 3:58:40 PM Public
a48-hum-cdf2-16-172.jpg 4.93mb Oct 28, 2011 3:58:45 PM Public
a48-hum-cdf2-16-173.jpg 4.70mb Oct 28, 2011 3:58:50 PM Public
a48-hum-cdf2-16-174.jpg 4.65mb Oct 28, 2011 3:58:55 PM Public
a48-hum-cdf2-16-175.jpg 4.29mb Oct 28, 2011 3:59:01 PM Public
a48-hum-cdf2-16-176.jpg 4.25mb Oct 28, 2011 3:59:14 PM Public
a48-hum-cdf2-16-177.jpg 4.15mb Oct 28, 2011 3:59:20 PM Public
a48-hum-cdf2-16-178.jpg 3.93mb Oct 28, 2011 3:59:26 PM Public
a48-hum-cdf2-16-179.jpg 4.33mb Oct 28, 2011 3:59:57 PM Public
a48-hum-cdf2-16-180.jpg 4.79mb Oct 28, 2011 4:00:30 PM Public
a48-hum-cdf2-16-181.jpg 4.41mb Oct 28, 2011 4:01:00 PM Public
a48-hum-cdf2-16-182.jpg 4.16mb Oct 28, 2011 4:01:29 PM Public
a48-hum-cdf2-16-183.jpg 4.48mb Oct 28, 2011 4:01:50 PM Public
a48-hum-cdf2-16-184.jpg 4.85mb Oct 28, 2011 4:01:59 PM Public
a48-hum-cdf2-16-185.jpg 4.91mb Oct 28, 2011 4:02:05 PM Public
a48-hum-cdf2-16-186.jpg 4.83mb Oct 28, 2011 4:02:16 PM Public
a48-hum-cdf2-16-187.jpg 4.69mb Oct 28, 2011 4:02:45 PM Public
a48-hum-cdf2-16-188.jpg 4.71mb Oct 28, 2011 4:04:58 PM Public
a48-hum-cdf2-16-189.jpg 4.88mb Oct 28, 2011 4:05:05 PM Public
a48-hum-cdf2-16-190.jpg 4.89mb Oct 28, 2011 4:05:10 PM Public
a48-hum-cdf2-16-191.jpg 5.11mb Oct 28, 2011 4:05:15 PM Public
a48-hum-cdf2-16-192.jpg 5.15mb Oct 28, 2011 4:05:27 PM Public
a48-hum-cdf2-16-193.jpg 5.21mb Oct 28, 2011 4:05:34 PM Public
a48-hum-cdf2-16-194.jpg 5.29mb Oct 28, 2011 4:05:40 PM Public
a48-hum-cdf2-16-195.jpg 5.36mb Oct 28, 2011 4:05:45 PM Public
a48-hum-cdf2-16-196.jpg 5.13mb Oct 28, 2011 4:06:17 PM Public
a48-hum-cdf2-16-197.jpg 4.84mb Oct 28, 2011 4:06:26 PM Public
a48-hum-cdf2-16-198.jpg 5.00mb Oct 28, 2011 4:06:31 PM Public
a48-hum-cdf2-16-199.jpg 4.65mb Oct 28, 2011 4:06:36 PM Public
a48-hum-cdf2-16-200.jpg 3.99mb Oct 28, 2011 4:06:41 PM Public
a48-hum-cdf2-16-201.jpg 4.07mb Oct 28, 2011 4:07:28 PM Public
a48-hum-cdf2-16-202.jpg 4.58mb Oct 28, 2011 4:07:46 PM Public
a48-hum-cdf2-16-203.jpg 5.27mb Oct 28, 2011 4:08:26 PM Public
a48-hum-cdf2-16-204.jpg 5.42mb Oct 28, 2011 4:08:40 PM Public
a48-hum-cdf2-16-205.jpg 5.42mb Oct 28, 2011 4:08:54 PM Public
flightline-16e.jpg 1.02mb Nov 3, 2011 12:23:30 PM Public
flightline-16w.jpg 902.07kb Nov 3, 2011 12:23:35 PM Public
Arizona State University The Andrew W. Mellon Foundation National Science Foundation National Endowment for the Humanities Society for American Archaeology Archaeological Institute of America